Theta_e
294 294 295 295 295 295 295 294 294 294 295 295 295 296 295 295 295 295 296 297 297 297 297 297 297 297 296 296 296 296 297 297
293 293 293 293 293 293 293 292 292 293 293 293 293 293 293 293 293 293 294 294 295 295 295 295 295 295 294 294 294 293 294 294
292 292 291 291 292 292 291 290 290 291 291 290 291 290 290 290 291 291 291 292 292 293 293 293 293 293 293 293 294 292 293 293
290 290 290 290 290 291 290 288 288 289 289 289 288 287 287 287 288 289 289 289 289 290 290 291 292 292 292 291 292 292 292 293
288 288 288 288 288 288 287 287 287 286 286 285 285 285 285 285 285 285 286 286 286 287 287 288 289 290 290 290 290 291 291 292
287 287 286 286 285 285 284 285 284 283 283 283 283 283 282 282 282 283 283 284 284 285 285 286 287 288 288 288 288 288 289 290
286 286 284 284 283 283 282 282 282 281 281 281 281 281 280 280 280 281 281 282 282 282 283 284 285 289 290 290 288 288 288 287
285 284 283 281 281 280 281 281 281 280 280 279 279 279 279 279 279 279 279 280 280 281 282 282 283 288 289 289 287 287 287 287
282 282 281 280 280 280 280 279 279 278 278 278 278 278 278 278 278 278 278 278 279 280 281 281 282 286 288 287 286 286 286 286
281 281 279 278 278 278 278 277 277 276 276 276 276 276 276 276 276 277 277 277 278 279 279 280 280 284 286 286 284 284 284 285
279 279 277 277 277 277 276 276 274 275 275 275 275 275 274 275 275 276 276 277 278 278 279 279 279 283 284 284 283 282 283 284
276 276 276 277 276 275 275 273 274 274 273 273 273 273 274 274 274 274 275 275 275 277 278 278 279 280 283 284 282 282 282 283
274 275 275 275 274 273 272 272 272 271 271 270 271 272 273 272 272 273 273 273 274 275 275 277 278 280 281 282 283 283 281 281
273 273 273 273 272 270 270 270 270 268 267 269 270 271 271 270 270 270 271 271 272 273 273 274 276 277 280 280 281 282 280 281
271 270 270 270 270 269 269 268 265 265 267 268 268 268 268 269 269 269 270 270 271 272 272 273 274 274 276 277 278 279 279 281
268 268 268 267 267 265 266 265 264 265 266 266 267 266 266 267 268 269 271 272 272 272 273 272 271 273 278 278 276 277 279 280
266 265 264 263 263 263 262 262 261 263 264 264 264 264 265 265 266 271 273 274 275 276 275 273 276 277 277 278 279 279 279 278
263 262 260 260 259 259 259 258 258 259 261 262 263 263 263 264 264 263 267 272 273 273 274 274 275 275 276 277 277 276 277 274
257 257 255 254 256 258 256 255 256 257 260 261 262 262 263 263 263 264 263 263 264 268 270 272 272 273 275 274 273 267 269 270
253 252 252 252 256 255 254 255 255 257 259 260 262 262 262 262 263 263 263 262 262 263 266 266 269 272 271 271 264 264 264 265
Wind_Speed
8 9 9 9 10 11 10 10 9 10 10 8 8 8 7 6 8 8 8 7 8 9 7 8 7 7 6 6 6 6 6 5
8 7 6 7 8 9 12 13 13 11 11 10 10 10 8 7 6 7 7 8 9 9 10 10 10 8 7 8 9 9 10 7
7 6 7 8 9 10 10 11 9 7 7 7 8 9 10 10 11 11 11 10 9 10 9 9 9 8 8 11 10 10 12 12
8 9 8 9 9 8 7 6 6 5 6 7 9 9 10 12 12 13 12 12 11 10 10 11 11 11 9 9 12 12 13 13
7 7 6 6 5 4 4 4 5 4 4 6 8 9 9 9 9 10 11 11 13 12 12 11 11 11 11 11 12 13 14 14
5 4 2 1 1 3 3 4 5 5 6 9 9 9 9 10 11 12 11 11 12 14 13 13 11 9 12 12 13 15 17 16
3 2 1 2 4 4 5 6 6 6 9 9 11 11 11 12 12 11 12 14 14 15 16 16 10 20 22 19 16 16 16 18
3 1 2 4 5 7 8 9 11 11 11 11 12 12 12 12 13 14 15 15 16 16 16 17 16 24 25 25 15 17 17 17
1 2 5 7 10 9 9 10 10 11 11 11 11 12 13 13 14 15 14 15 15 15 16 17 15 27 27 28 19 17 19 18
5 6 7 9 9 10 9 8 8 11 11 11 12 13 14 14 15 15 15 15 14 15 17 18 18 27 29 25 17 17 20 18
7 5 7 8 8 7 7 7 10 10 11 11 12 12 13 13 14 13 14 15 13 15 14 17 19 24 28 25 14 18 16 19
6 5 5 6 6 7 6 8 9 10 10 11 12 12 12 12 12 14 14 14 14 16 15 16 15 19 30 31 17 13 15 14
4 4 5 7 7 6 6 8 8 9 11 11 11 10 10 13 12 14 13 14 15 16 16 12 15 21 26 32 30 29 17 17
6 6 5 5 4 6 7 8 10 9 9 10 11 10 11 12 12 11 11 11 12 12 14 15 13 14 28 30 33 32 21 16
4 3 3 2 3 3 5 7 6 8 10 10 10 11 11 9 8 9 9 10 11 12 13 14 15 15 15 16 17 24 21 24
2 3 4 4 3 3 7 9 10 8 8 9 8 9 10 8 8 9 9 11 12 11 12 13 15 16 30 29 20 19 23 28
3 4 4 4 6 7 7 6 6 8 7 7 7 8 8 9 10 15 19 22 22 23 19 13 25 33 36 37 38 39 39 19
4 3 3 6 7 6 6 5 5 5 8 7 7 7 8 9 10 13 15 21 21 22 25 27 28 33 34 35 37 34 29 14
2 5 5 4 5 6 6 4 5 6 8 7 7 7 8 8 9 9 11 14 14 17 22 25 31 33 32 34 27 15 15 13
3 2 3 3 6 4 4 5 6 6 5 5 6 6 8 8 8 8 10 11 12 14 21 18 31 31 29 27 11 13 13 13
Wind_Direction
78 57 47 43 44 43 39 33 21 16 15 9 2 359 350 341 345 342 326 318 320 317 313 306 305 291 283 271 255 245 254 241
77 62 53 49 44 41 33 25 17 9 359 2 1 0 359 354 335 324 321 324 324 323 316 310 302 292 283 282 284 273 276 251
76 70 55 45 39 39 31 26 7 351 351 360 359 1 359 356 348 345 341 329 324 317 311 304 298 293 283 286 283 266 272 269
66 53 40 31 26 26 19 357 335 336 353 1 3 359 355 354 345 343 337 336 330 327 320 315 307 301 284 267 276 269 266 266
59 51 35 24 15 12 350 346 336 335 354 3 358 353 347 336 332 328 332 332 333 327 317 314 311 303 293 285 284 280 273 268
79 81 20 315 349 352 355 356 341 348 13 8 354 348 337 338 338 337 334 327 322 320 321 318 318 314 313 299 289 283 279 272
103 155 214 22 17 2 356 6 358 359 8 3 355 346 341 339 334 331 331 334 328 325 319 319 316 313 308 301 294 288 282 281
125 70 51 31 17 14 4 1 6 2 2 359 350 340 339 336 338 340 335 331 328 322 319 314 313 314 310 306 296 291 285 279
56 50 34 23 19 6 10 6 358 360 358 347 338 337 342 340 338 337 332 329 319 316 315 311 311 315 314 312 303 294 288 281
30 31 23 21 7 6 4 358 357 354 346 338 341 343 342 336 333 330 323 316 316 315 315 309 311 319 321 321 310 300 296 291
27 24 23 10 9 359 359 360 349 343 333 335 344 341 333 329 328 318 312 315 314 311 311 311 311 320 326 329 318 311 307 302
35 24 8 9 355 6 354 354 335 327 333 342 338 333 326 326 321 318 318 316 318 317 319 317 318 320 325 326 319 311 305 302
36 26 16 22 5 348 352 333 321 335 346 336 330 334 329 326 321 323 321 325 325 322 320 320 320 320 323 323 323 318 310 295
24 9 358 27 360 335 329 335 348 347 331 329 327 326 329 327 323 320 327 325 323 322 319 319 323 321 324 322 320 318 313 300
343 321 334 350 317 311 338 351 349 337 333 331 331 328 324 319 315 317 318 319 315 320 318 316 318 323 323 321 319 318 314 308
309 309 295 302 318 350 9 6 353 335 324 326 322 314 311 307 310 308 303 303 316 313 312 320 318 317 320 323 320 315 308 309
288 282 284 323 352 5 7 1 338 330 324 315 308 312 311 313 310 306 312 317 318 319 321 317 312 319 323 320 322 323 320 310
255 268 346 6 356 338 335 344 327 300 300 304 310 310 313 313 316 319 320 319 324 324 325 321 322 326 323 328 326 330 329 323
318 6 11 352 321 319 327 311 293 296 295 290 296 300 306 307 308 309 315 319 320 325 323 329 330 328 331 332 335 326 334 329
39 351 350 339 303 291 301 319 311 300 291 292 301 300 301 303 310 311 312 314 315 322 328 336 328 325 336 334 327 325 325 325